Weather History for KFHR - May, 2014

Change the Weather History Date:

Monday, May 26, 2014

  Actual Average Record
Temperature  
Mean Temperature 57 °F -  
Max Temperature 64 °F 61 °F 82 °F (2005)
Min Temperature 50 °F 42 °F 36 °F (1999)
Degree Days  
Heating Degree Days 8    
Growing Degree Days 7 (Base 50)    
Moisture  
Dew Point 49 °F    
Average Humidity 85    
Maximum Humidity 100    
Minimum Humidity 52    
Precipitation  
Precipitation 0.09 in - - ()
Sea Level Pressure  
Sea Level Pressure 30.07 in    
Wind  
Wind Speed 3 mph (SSW)    
Max Wind Speed 12 mph    
Max Gust Speed 17 mph    
Visibility 8 miles    
Events Fog , Rain    
Averages and records for this station are not official NWS values.
T = Trace of Precipitation, MM = Missing Value Source: NWS Daily Summary

Daily Weather History Graph

Daily Weather History Graph

Search for Another Location

Airport or City:

Trip Planner

Search our weather history database for the weather conditions in past years. The results will help you decide how hot, cold, wet, or windy it might be!

Date:

Astronomy

May. 26, 2014 Rise Set
Actual Time 5:19 AM PDT 8:59 PM PDT
Civil Twilight 4:39 AM PDT 9:39 PM PDT
Nautical Twilight 3:46 AM PDT 10:33 PM PDT
Astronomical Twilight 2:30 AM PDT 11:50 PM PDT
Moon 4:17 AM PDT (5/26) 6:58 PM PDT (5/26)
Length of Visible Light 16h 59m
Length of Day
15h 40m
Waning Crescent, 4% of the Moon is Illuminated
May 26
Waning Crescent
May 28
New
Jun 5
First Quarter
Jun 12
Full
Jun 19
Last Quarter

Hourly Weather History & Observations

Time (PDT) Temp. Dew Point Humidity Pressure Visibility Wind Dir Wind Speed Gust Speed Precip Events Conditions
12:53 AM 51.1 °F 50.0 °F 96% 30.00 in 10.0 mi Calm Calm - N/A   Overcast
1:34 AM 51.1 °F 50.0 °F 96% 30.00 in 10.0 mi Calm Calm - N/A   Overcast
1:53 AM 52.0 °F 50.0 °F 93% 30.00 in 10.0 mi Calm Calm - N/A   Overcast
2:02 AM 52.0 °F 51.1 °F 97% 30.00 in 10.0 mi Calm Calm - 0.00 in Rain Light Rain
2:15 AM 52.0 °F 51.1 °F 97% 30.00 in 10.0 mi Calm Calm - 0.00 in Rain Light Rain
2:53 AM 52.0 °F 51.1 °F 97% 29.99 in 9.0 mi Calm Calm - 0.00 in   Overcast
3:32 AM 52.0 °F 51.1 °F 97% 30.00 in 10.0 mi Calm Calm - N/A   Overcast
3:39 AM 52.0 °F 51.1 °F 97% 30.00 in 10.0 mi Calm Calm - N/A   Overcast
3:53 AM 52.0 °F 51.1 °F 97% 30.00 in 10.0 mi Calm Calm - N/A   Overcast
4:01 AM 52.0 °F 51.1 °F 97% 30.00 in 10.0 mi Calm Calm - N/A   Overcast
4:53 AM 51.1 °F 50.0 °F 96% 30.00 in 1.8 mi East 3.5 mph - 0.01 in Rain Rain
5:02 AM 51.1 °F 50.0 °F 96% 30.00 in 0.5 mi ENE 4.6 mph - 0.02 in Fog , Rain Rain
5:53 AM 50.0 °F 50.0 °F 100% 30.01 in 0.8 mi Calm Calm - 0.02 in   Mist
6:22 AM 51.1 °F 50.0 °F 96% 30.03 in 2.0 mi SSW 3.5 mph - 0.00 in Rain Light Rain
6:33 AM 51.1 °F 50.0 °F 96% 30.03 in 3.0 mi SSW 3.5 mph - 0.00 in Rain Light Rain
6:53 AM 50.0 °F 48.9 °F 96% 30.04 in 3.0 mi SW 8.1 mph - 0.00 in Rain Light Rain
7:05 AM 50.0 °F 48.9 °F 96% 30.04 in 2.5 mi SSW 5.8 mph - 0.02 in Rain Light Rain
7:08 AM 50.0 °F 48.9 °F 96% 30.04 in 1.5 mi SSW 3.5 mph - 0.04 in Rain Heavy Rain
7:18 AM 50.0 °F 48.9 °F 96% 30.04 in 2.0 mi SSW 4.6 mph - 0.06 in Rain Light Rain
7:26 AM 51.1 °F 50.0 °F 96% 30.04 in 5.0 mi South 3.5 mph - 0.06 in Rain Light Rain
7:53 AM 52.0 °F 51.1 °F 97% 30.05 in 10.0 mi SSW 4.6 mph - 0.06 in   Overcast
8:12 AM 51.1 °F 50.0 °F 96% 30.06 in 10.0 mi SSW 3.5 mph - N/A   Overcast
8:53 AM 54.0 °F 52.0 °F 93% 30.07 in 10.0 mi SW 5.8 mph - N/A   Overcast
10:53 AM 55.9 °F 48.0 °F 75% 30.09 in 10.0 mi Variable 4.6 mph - N/A   Overcast
11:53 AM 61.0 °F 46.9 °F 60% 30.11 in 10.0 mi SW 9.2 mph 17.3 mph N/A   Clear
12:53 PM 62.1 °F 46.0 °F 56% 30.12 in 10.0 mi WSW 6.9 mph - N/A   Partly Cloudy
1:53 PM 63.0 °F 46.0 °F 54% 30.14 in 10.0 mi SW 11.5 mph 17.3 mph N/A   Scattered Clouds
2:53 PM 64.0 °F 46.9 °F 54% 30.16 in 10.0 mi SW 9.2 mph 17.3 mph N/A   Overcast
3:53 PM 64.0 °F 46.0 °F 52% 30.16 in 10.0 mi South 10.4 mph - N/A   Mostly Cloudy
4:53 PM 62.1 °F 46.9 °F 58% 30.16 in 10.0 mi South 10.4 mph - N/A   Overcast
5:53 PM 57.0 °F 45.0 °F 64% 30.15 in 10.0 mi SSW 9.2 mph - N/A   Overcast
6:53 PM 55.9 °F 45.0 °F 67% 30.16 in 10.0 mi SW 8.1 mph - N/A   Overcast
8:53 PM 55.0 °F 44.1 °F 67% 30.17 in 10.0 mi SW 4.6 mph - N/A   Overcast
9:53 PM 53.1 °F 44.1 °F 71% 30.18 in 10.0 mi SW 3.5 mph - N/A   Overcast
10:53 PM 52.0 °F 44.1 °F 74% 30.18 in 10.0 mi West 3.5 mph - N/A   Overcast
11:53 PM 50.0 °F 43.0 °F 77% 30.18 in 10.0 mi WSW 3.5 mph - N/A   Overcast